Location: Eenumerhoogte
(53.3420°N, 6.7843°E)
Time: 12:34:13
(UTC+00:00)

USA 234 - Pass Details

Date: 15 May 2026
Orbit: 1102 x 1106 km, 123.0° (Epoch: 4 January)

Event Time Altitude Azimuth Distance (km) Brightness Sun altitude
Rises 22:38:56 0° 61° (ENE) 3,927 6.4 -16.8°
Reaches altitude 10° 22:41:47 10° 71° (ENE) 2,966 5.6 -16.9°
Maximum altitude 22:47:27 31° 132° (SE) 1,842 4.0 -17.1°
Enters shadow 22:49:36 25° 164° (SSE) 2,042 4.1 -17.1°
